Погода в Беклемишеве

Россия / Ульяновская область     53°51′32″N   47°24′29″E
темп.,
°C
ветер,
м/с
пор.,
м/с
влажн.,
%
обл.,
%
осадки,
мм/ч
давл.,
гПа
погр.,
м
20 апреля, вт
вт2001:00+3в613635 0.0 1025616
04:00+2вюв6136454 0.0 1026667
07:00+2в713688 0.0 1027714
10:00+5вюв8134696 0.0 1027893
13:00+6вюв9124399 0.0 10261007
16:00+9вюв81242100 0.0 10241395
19:00+8вюв81348100 0.0 10231165
22:00+6юв81548100 0.0 1023971
21 апреля, ср
ср2101:00+5юв91846100 0.0 1021845
04:00+5юв101947100 0.0 1020829
07:00+2юв102180100 1.1 1020754
10:00+3ююв101982100 1.2 1020875
13:00+2ююв81785100 0.2 1020729
16:00+2ююв91789100 1.4 1020712
19:00+2ююв81693100 1.0 1020703
22:00+2ю71496100 1.1 1021549
22 апреля, чт
чт2201:00+3ю51296100 0.1 1021439
04:00+3ююв5109899 1.2 1021324
07:00+4ю41098100 0.0 1022434
10:00+6ю5988100 0.0 1023603
13:00+10ю687681 0.0 1023738
16:00+14ююз575532 0.3 10221582
19:00+11ю4873100 1.2 1022254
22:00+7ю6128798 3.0 1024381
23 апреля, пт
пт2301:00+5ю49925 0.2 1024210
04:00+4ю35953 0.2 102591
07:00+5ю24920 0.0 1025109
10:00+10ю22730 0.0 1025440
13:00+14юв225413 0.0 10241405
16:00+15вюв324781 0.1 10231775
19:00+12юв4661100 0.0 1022220
22:00+9вюв368299 0.0 1022128
24 апреля, сб
сб2401:00+7вюв2287100 0.0 102128
04:00+6всв2290100 0.0 101918
07:00+7св2489100 0.0 1018138
10:00+10св3374100 0.0 1016605
13:00+12всв2262100 0.1 10141253
16:00+11в326598 0.2 1013882
19:00+10вюв4676100 0.1 1012361
22:00+8юв4983100 0.1 1011353